This demonstration page uses our WeatherBlox Daily Observations layout. Learn more.

Hourly Observations for May 19, 2018

Temp ( °F °C ) Dew Point ( °F °C ) Humidity (%) Winds ( mph kmh ) Pressure ( in mb ) Visibility ( mi km ) Precip ( " mm )
12:54 am 00:54 Clear 61 16.1 58 14.4 90 90 Calm 29.85 1011 10 16.0934 0 0
1:54 am 01:54 Clear 62 16.7 58 14.4 86 86 NNW 6 9 29.83 1010 10 16.0934 0 0
2:54 am 02:54 Mostly Cloudy 65 18.3 57 13.9 76 76 N 3 6 29.83 1010 10 16.0934 0 0
3:54 am 03:54 Mostly Cloudy with Nearby Thunderstorms 64 17.8 58 14.4 81 81 S 6 9 29.85 1011 10 16.0934 0 0
4:32 am 04:32 Cloudy with Light Thunderstorms 64 17.8 60 15.6 87 87 SSW 8 13 29.88 1012 7 11.26538 0.01 0.254
4:54 am 04:54 Cloudy with Heavy Thunderstorms 63 17.2 61 16.1 93 93 WSW 8 13 29.9 1013 2.5 4.02335 0.13 3.302
5:01 am 05:01 Cloudy with Nearby Thunderstorms 63 17.2 61 16.1 93 93 SW 6 9 29.91 1013 1.5 2.41401 0.08 2.032
5:12 am 05:12 Cloudy with Nearby Thunderstorms 63 17.2 61 16.1 93 93 WNW 6 9 29.91 1013 3 4.82802 0.14 3.556
5:37 am 05:37 Cloudy 63 17.2 61 16.1 93 93 NW 8 13 29.88 1012 7 11.26538 0.15 3.81
5:54 am 05:54 Cloudy 63 17.2 61 16.1 93 93 WNW 7 11 29.88 1012 7 11.26538 0.15 3.81
6:54 am 06:54 Cloudy with Mist and Fog 63 17.2 61 16.1 93 93 NNW 9 15 29.88 1012 4 6.43736 0 0
7:54 am 07:54 Cloudy with Light Rain 61 16.1 58 14.4 90 90 N 12 19 29.9 1012 6 9.65604 0 0.0254
8:54 am 08:54 Cloudy with Rain 59 15 56 13.3 90 90 NNE 17 28 29.89 1012 3 4.82802 0.02 0.508
9:07 am 09:07 Cloudy with Light Rain 59 15 56 13.3 90 90 N 17 28 29.91 1013 4 6.43736 0.01 0.254
9:54 am 09:54 Cloudy with Mist and Fog 58 14.4 55 12.8 90 90 N 15 24 29.87 1012 5 8.0467 0.01 0.254
10:52 am 10:52 Mostly Cloudy with Haze 57 14 54 12 88 88 N 17 28 29.91 1013 6 9.65604 0 0
10:54 am 10:54 Mostly Cloudy with Mist and Fog 57 13.9 53 11.7 87 87 N 18 30 29.91 1013 6 9.65604 0 0
11:54 am 11:54 Cloudy 58 14.4 53 11.7 84 84 N 13 20 29.95 1014 7 11.26538 0 0
12:54 pm 12:54 Cloudy 57 13.9 52 11.1 83 83 N 13 20 29.96 1015 8 12.87472 0 0
1:54 pm 13:54 Cloudy 59 15 52 11.1 78 78 NNE 14 22 29.96 1014 8 12.87472 0 0
2:54 pm 14:54 Cloudy 59 15 52 11.1 78 78 NNW 10 17 29.97 1015 9 14.48406 0 0
3:54 pm 15:54 Cloudy 61 16.1 53 11.7 75 75 N 17 28 29.94 1014 9 14.48406 0 0
4:54 pm 16:54 Cloudy 62 16.7 53 11.7 73 73 NNE 14 22 29.93 1013 9 14.48406 0 0
5:54 pm 17:54 Cloudy 61 16.1 53 11.7 75 75 NNE 9 15 29.97 1015 8 12.87472 0 0
6:05 pm 18:05 Cloudy 61 16.1 53 11.7 75 75 NNE 10 17 30 1016 8 12.87472 0 0
6:54 pm 18:54 Cloudy with Haze 61 16.1 53 11.7 75 75 N 12 19 29.96 1015 6 9.65604 0 0
7:54 pm 19:54 Cloudy 59 15 52 11.1 78 78 N 13 20 29.98 1015 8 12.87472 0 0
8:36 pm 20:36 Cloudy with Light Rain 58 14.4 53 11.7 84 84 NNE 15 24 29.97 1015 7 11.26538 0 0.0254
8:54 pm 20:54 Cloudy with Light Rain 58 14.4 54 12.2 87 87 NNW 10 17 30 1016 7 11.26538 0 0.0254
9:25 pm 21:25 Partly Cloudy 57 13.9 53 11.7 87 87 N 9 15 30 1016 8 12.87472 0 0.0254
9:54 pm 21:54 Mostly Cloudy 56 13.3 53 11.7 90 90 N 7 11 30.02 1017 7 11.26538 0 0.0254
10:54 pm 22:54 Mostly Cloudy 54 12.2 52 11.1 93 93 N 5 7 30.05 1018 7 11.26538 0 0
11:03 pm 23:03 Mostly Cloudy 55 12.8 52 11.1 90 90 N 5 7 30.06 1018 7 11.26538 0 0
11:45 pm 23:45 Partly Cloudy 55 12.8 52 11.1 90 90 N 7 11 30.06 1018 7 11.26538 0 0
11:54 pm 23:54 Mostly Clear 54 12.2 52 11.1 93 93 N 7 11 30.05 1018 7 11.26538 0 0

Powered by AerisWeather